EW4319 Weather Reports


time (UTC)temp
C
wind
direction
speed
KPH
gust
KPH
rain 1hr
cm
rain 24hr
cm
rain mn
cm
humidity
%
barometer
mb
20260504160436 20 190 1.6 6.4 0.00 0.00 0.00 56 1006.6
20260504160337 20 188 3.2 6.4 0.00 0.00 0.00 55 1006.5
20260504151136 20 201 3.2 9.7 0.00 0.00 0.00 53 1006.4
20260504151036 20 205 3.2 9.7 0.00 0.00 0.00 52 1006.5
20260504150937 20 213 3.2 9.7 0.00 0.00 0.00 52 1006.5
20260504150836 20 214 3.2 9.7 0.00 0.00 0.00 52 1006.6
20260504150736 20 217 3.2 9.7 0.00 0.00 0.00 52 1006.6
20260504150636 20 218 3.2 9.7 0.00 0.00 0.00 51 1006.6
20260504150437 20 220 3.2 9.7 0.00 0.00 0.00 52 1006.8
20260504150336 20 222 3.2 8.0 0.00 0.00 0.00 51 1006.8
20260504150236 20 222 3.2 8.0 0.00 0.00 0.00 52 1006.8
20260504141236 21 193 3.2 9.7 0.00 0.00 0.00 52 1006.4
20260504141136 21 195 3.2 9.7 0.00 0.00 0.00 52 1006.4
20260504140737 21 206 3.2 11.3 0.00 0.00 0.00 52 1006.4
20260504140636 21 204 3.2 11.3 0.00 0.00 0.00 53 1006.5
20260504140536 21 202 3.2 11.3 0.00 0.00 0.00 53 1006.4
20260504140436 21 199 3.2 11.3 0.00 0.00 0.00 52 1006.4
20260504140336 21 200 3.2 11.3 0.00 0.00 0.00 52 1006.4
20260504140136 21 200 3.2 11.3 0.00 0.00 0.00 53 1006.4
20260504130736 18 179 3.2 9.7 0.00 0.00 0.00 60 1006.9
20260504130635 18 181 3.2 6.4 0.00 0.00 0.00 60 1007.0
20260504130536 18 179 3.2 9.7 0.00 0.00 0.00 61 1006.9
20260504130435 18 176 3.2 9.7 0.00 0.00 0.00 60 1006.9
20260504130335 18 173 3.2 9.7 0.00 0.00 0.00 61 1007.0
20260504130236 18 174 3.2 9.7 0.00 0.00 0.00 61 1007.0
20260504130135 18 174 3.2 9.7 0.00 0.00 0.00 61 1006.9
20260504120136 16 164 3.2 6.4 0.00 0.00 0.00 66 1007.1
20260504110435 16 150 1.6 4.8 0.00 0.00 0.00 67 1007.1
20260504110335 16 148 1.6 4.8 0.00 0.00 0.00 67 1007.1
20260504110234 16 153 1.6 4.8 0.00 0.00 0.00 67 1007.1
20260504110135 16 154 1.6 4.8 0.00 0.00 0.00 66 1007.1
20260504100434 16 149 3.2 6.4 0.00 0.00 0.00 65 1007.2
20260504100334 16 150 3.2 6.4 0.00 0.00 0.00 65 1007.2
20260504100235 16 148 3.2 6.4 0.00 0.00 0.00 65 1007.3
20260504100135 16 147 3.2 6.4 0.00 0.00 0.00 65 1007.2
20260504090134 17 150 1.6 4.8 0.00 0.00 0.00 61 1007.4
20260504081835 17 136 1.6 4.8 0.00 0.00 0.00 61 1007.4
20260504081734 17 134 1.6 4.8 0.00 0.00 0.00 61 1007.4
20260504081634 17 133 1.6 4.8 0.00 0.00 0.00 61 1007.4
20260504081534 17 133 1.6 4.8 0.00 0.00 0.00 61 1007.4
20260504081434 17 132 1.6 4.8 0.00 0.00 0.00 61 1007.4
20260504081334 17 131 1.6 4.8 0.00 0.00 0.00 61 1007.4
20260504081133 17 129 1.6 4.8 0.00 0.00 0.00 61 1007.4
20260504080834 17 126 1.6 3.2 0.00 0.00 0.00 61 1007.4
20260504080733 17 126 1.6 3.2 0.00 0.00 0.00 61 1007.3
20260504080633 17 126 1.6 3.2 0.00 0.00 0.00 61 1007.3
20260504080534 17 126 1.6 3.2 0.00 0.00 0.00 61 1007.3
20260504080333 17 125 1.6 3.2 0.00 0.00 0.00 61 1007.3
20260504080134 17 125 1.6 3.2 0.00 0.00 0.00 61 1007.4
20260504070334 18 137 1.6 3.2 0.00 0.00 0.00 55 1007.7
20260504060134 18 312 1.6 6.4 0.00 0.00 0.00 55 1008.0
20260504050732 19 205 3.2 11.3 0.00 0.00 0.00 52 1006.9
20260504050633 19 207 3.2 11.3 0.00 0.00 0.00 52 1006.9
20260504050533 19 212 3.2 11.3 0.00 0.00 0.00 52 1006.9
20260504050433 19 212 3.2 11.3 0.00 0.00 0.00 52 1006.9
20260504050332 19 210 3.2 11.3 0.00 0.00 0.00 52 1006.9
20260504050233 19 211 3.2 11.3 0.00 0.00 0.00 52 1006.9
20260504050133 19 216 3.2 11.3 0.00 0.00 0.00 52 1006.9
20260504045933 19 222 3.2 11.3 0.00 0.00 0.00 52 1006.9
20260504045832 19 225 3.2 11.3 0.00 0.00 0.00 52 1006.9
20260504045732 19 225 3.2 6.4 0.00 0.00 0.00 52 1006.9
20260504045633 19 221 3.2 6.4 0.00 0.00 0.00 52 1006.9
20260504045533 19 216 3.2 6.4 0.00 0.00 0.00 52 1006.9
20260504045433 19 215 3.2 6.4 0.00 0.00 0.00 52 1006.8
20260504045333 19 216 3.2 4.8 0.00 0.00 0.00 51 1006.9
20260504045232 19 215 3.2 4.8 0.00 0.00 0.00 52 1006.8
20260504045133 19 215 3.2 4.8 0.00 0.00 0.00 51 1006.8
20260504045033 19 213 3.2 4.8 0.00 0.00 0.00 52 1006.8
20260504044934 19 210 3.2 9.7 0.00 0.00 0.00 51 1006.8
20260504044532 19 198 3.2 9.7 0.00 0.00 0.00 51 1006.8
20260504044432 19 195 3.2 9.7 0.00 0.00 0.00 51 1006.8
20260504044333 19 195 3.2 9.7 0.00 0.00 0.00 51 1006.8
20260504044232 19 192 3.2 9.7 0.00 0.00 0.00 51 1006.8
20260504044133 19 193 4.8 9.7 0.00 0.00 0.00 51 1006.9
20260504044033 19 196 4.8 9.7 0.00 0.00 0.00 50 1006.9
20260504043832 19 203 3.2 9.7 0.00 0.00 0.00 50 1007.0
20260504043732 19 200 4.8 9.7 0.00 0.00 0.00 50 1007.1
20260504043633 19 204 4.8 9.7 0.00 0.00 0.00 50 1007.1
20260504043532 19 205 4.8 14.5 0.00 0.00 0.00 51 1007.1
20260504043233 19 201 4.8 14.5 0.00 0.00 0.00 50 1007.2
20260504043133 19 197 4.8 14.5 0.00 0.00 0.00 50 1007.1
20260504043033 19 194 4.8 14.5 0.00 0.00 0.00 50 1007.0
20260504042932 19 195 4.8 14.5 0.00 0.00 0.00 50 1007.0
20260504042832 19 193 4.8 14.5 0.00 0.00 0.00 50 1007.2
20260504042734 19 195 4.8 14.5 0.00 0.00 0.00 50 1007.2
20260504042432 19 186 3.2 9.7 0.00 0.00 0.00 50 1007.0
20260504042333 19 188 3.2 9.7 0.00 0.00 0.00 49 1007.1
20260504042232 19 191 3.2 9.7 0.00 0.00 0.00 50 1007.3
20260504042133 19 194 3.2 9.7 0.00 0.00 0.00 50 1007.4
20260504041932 19 197 3.2 8.0 0.00 0.00 0.00 50 1007.4
20260504041832 19 197 3.2 8.0 0.00 0.00 0.00 49 1007.4
20260504041633 19 199 3.2 8.0 0.00 0.00 0.00 49 1007.4
20260504041533 19 203 3.2 8.0 0.00 0.00 0.00 49 1007.4
20260504041433 19 203 3.2 9.7 0.00 0.00 0.00 49 1007.5
20260504041332 19 202 3.2 9.7 0.00 0.00 0.00 49 1007.5
20260504041232 19 203 3.2 9.7 0.00 0.00 0.00 49 1007.6
20260504041132 19 201 3.2 9.7 0.00 0.00 0.00 49 1007.6
20260504041032 19 205 3.2 9.7 0.00 0.00 0.00 49 1007.6
20260504040932 19 200 3.2 9.7 0.00 0.00 0.00 49 1007.6
20260504040833 19 200 3.2 9.7 0.00 0.00 0.00 50 1007.6
20260504040732 19 198 3.2 9.7 0.00 0.00 0.00 50 1007.7
20260504040632 19 194 3.2 9.7 0.00 0.00 0.00 49 1007.8
20260504040433 19 197 3.2 8.0 0.00 0.00 0.00 49 1008.0
20260504040332 18 199 3.2 8.0 0.00 0.00 0.00 49 1007.9
20260504040232 18 201 3.2 8.0 0.00 0.00 0.00 49 1007.9
20260504040132 18 207 1.6 6.4 0.00 0.00 0.00 50 1008.0
20260504040033 18 208 1.6 6.4 0.00 0.00 0.00 50 1008.0
20260504035932 18 222 1.6 3.2 0.00 0.00 0.00 50 1008.0
20260504035832 18 222 1.6 3.2 0.00 0.00 0.00 50 1008.0
20260504035732 18 225 1.6 3.2 0.00 0.00 0.00 50 1008.0
20260504035633 18 234 1.6 3.2 0.00 0.00 0.00 50 1008.1
20260504035532 18 237 1.6 3.2 0.00 0.00 0.00 51 1008.1
20260504035432 18 239 1.6 3.2 0.00 0.00 0.00 51 1008.1
20260504035232 18 238 1.6 4.8 0.00 0.00 0.00 51 1008.2
20260504035132 18 237 1.6 4.8 0.00 0.00 0.00 51 1008.1
20260504035032 18 235 1.6 4.8 0.00 0.00 0.00 51 1008.1
20260504034832 18 234 1.6 4.8 0.00 0.00 0.00 51 1008.1
20260504034732 18 235 1.6 4.8 0.00 0.00 0.00 50 1008.1
20260504034532 18 238 1.6 4.8 0.00 0.00 0.00 50 1008.2
20260504034432 18 243 1.6 4.8 0.00 0.00 0.00 50 1008.2
20260504034333 18 247 0.0 4.8 0.00 0.00 0.00 50 1008.2
20260504034233 18 254 0.0 3.2 0.00 0.00 0.00 50 1008.1
20260504034132 18 264 0.0 3.2 0.00 0.00 0.00 50 1008.1
20260504034032 18 267 0.0 3.2 0.00 0.00 0.00 50 1008.1
20260504033932 18 273 0.0 3.2 0.00 0.00 0.00 50 1008.1
20260504033732 18 285 0.0 3.2 0.00 0.00 0.00 50 1008.2
20260504033533 18 306 0.0 3.2 0.00 0.00 0.00 50 1008.3
20260504033332 18 313 0.0 3.2 0.00 0.00 0.00 50 1008.4
20260504033233 18 317 0.0 3.2 0.00 0.00 0.00 50 1008.4
20260504033133 18 318 0.0 3.2 0.00 0.00 0.00 50 1008.4
20260504033032 18 318 0.0 3.2 0.00 0.00 0.00 50 1008.4
20260504032933 18 318 0.0 3.2 0.00 0.00 0.00 50 1008.4
20260504032732 18 318 0.0 3.2 0.00 0.00 0.00 49 1008.4
20260504032632 18 318 0.0 3.2 0.00 0.00 0.00 49 1008.4
20260504032431 18 307 0.0 3.2 0.00 0.00 0.00 49 1008.4
20260504032332 18 302 0.0 3.2 0.00 0.00 0.00 48 1008.4
20260504031932 19 264 0.0 3.2 0.00 0.00 0.00 48 1008.5
20260504031833 19 257 0.0 3.2 0.00 0.00 0.00 48 1008.4
20260504031732 19 255 0.0 3.2 0.00 0.00 0.00 48 1008.4
20260504031632 19 251 1.6 3.2 0.00 0.00 0.00 47 1008.4
20260504031532 19 245 1.6 4.8 0.00 0.00 0.00 47 1008.4
20260504031432 19 221 1.6 6.4 0.00 0.00 0.00 47 1008.4
20260504031332 19 202 1.6 11.3 0.00 0.00 0.00 47 1008.4
20260504031231 20 194 3.2 11.3 0.00 0.00 0.00 47 1008.3
20260504031131 20 194 3.2 11.3 0.00 0.00 0.00 46 1008.3
20260504030932 20 198 3.2 11.3 0.00 0.00 0.00 46 1008.3
20260504030832 20 197 3.2 11.3 0.00 0.00 0.00 46 1008.3
20260504030732 20 195 3.2 11.3 0.00 0.00 0.00 46 1008.3
20260504030631 20 192 3.2 11.3 0.00 0.00 0.00 46 1008.3
20260504030532 20 187 1.6 11.3 0.00 0.00 0.00 46 1008.3
20260504030432 20 190 1.6 11.3 0.00 0.00 0.00 46 1008.2
20260504030333 20 196 1.6 6.4 0.00 0.00 0.00 46 1008.2
20260504030132 20 204 1.6 4.8 0.00 0.00 0.00 47 1008.2
20260504030032 20 198 1.6 4.8 0.00 0.00 0.00 46 1008.2
20260504025932 20 200 1.6 4.8 0.00 0.00 0.00 46 1008.2
20260504025832 20 198 3.2 6.4 0.00 0.00 0.00 46 1008.2
20260504025632 20 195 3.2 6.4 0.00 0.00 0.00 46 1008.2
20260504025533 20 198 3.2 6.4 0.00 0.00 0.00 46 1008.2
20260504025433 20 195 3.2 6.4 0.00 0.00 0.00 46 1008.2
20260504025232 20 195 3.2 6.4 0.00 0.00 0.00 45 1008.2
20260504025132 20 192 3.2 6.4 0.00 0.00 0.00 45 1008.2
20260504025031 20 189 3.2 9.7 0.00 0.00 0.00 45 1008.1
20260504024931 20 192 1.6 9.7 0.00 0.00 0.00 45 1008.2
20260504024832 20 192 1.6 9.7 0.00 0.00 0.00 45 1008.1
20260504024732 20 189 1.6 9.7 0.00 0.00 0.00 45 1008.2
20260504024631 20 191 1.6 9.7 0.00 0.00 0.00 45 1008.2
20260504024532 20 195 3.2 9.7 0.00 0.00 0.00 45 1008.2
20260504024433 20 194 3.2 11.3 0.00 0.00 0.00 45 1008.2
20260504024232 20 193 3.2 11.3 0.00 0.00 0.00 45 1008.1
20260504024133 20 193 3.2 11.3 0.00 0.00 0.00 45 1008.1
20260504024031 20 193 3.2 11.3 0.00 0.00 0.00 45 1008.1
20260504023932 20 189 3.2 11.3 0.00 0.00 0.00 45 1008.1
20260504023833 20 187 3.2 11.3 0.00 0.00 0.00 44 1008.1
20260504023731 20 191 4.8 11.3 0.00 0.00 0.00 44 1008.1
20260504023631 20 190 4.8 11.3 0.00 0.00 0.00 44 1008.1
20260504023531 20 189 3.2 11.3 0.00 0.00 0.00 44 1008.1
20260504023332 20 190 3.2 8.0 0.00 0.00 0.00 44 1008.1
20260504023231 20 187 3.2 8.0 0.00 0.00 0.00 44 1008.0
20260504023132 20 187 3.2 8.0 0.00 0.00 0.00 44 1008.1
20260504023032 20 193 3.2 9.7 0.00 0.00 0.00 44 1008.1
20260504022932 20 198 3.2 9.7 0.00 0.00 0.00 44 1008.0
20260504022831 20 202 3.2 9.7 0.00 0.00 0.00 44 1008.0
20260504022631 20 195 3.2 9.7 0.00 0.00 0.00 44 1008.0
20260504022431 20 190 3.2 9.7 0.00 0.00 0.00 44 1008.0
20260504022332 20 188 4.8 9.7 0.00 0.00 0.00 44 1007.9
20260504022232 20 188 4.8 9.7 0.00 0.00 0.00 44 1008.0
20260504022031 20 184 4.8 9.7 0.00 0.00 0.00 44 1008.0
20260504021931 20 179 4.8 9.7 0.00 0.00 0.00 44 1007.9
20260504021732 20 178 4.8 9.7 0.00 0.00 0.00 44 1008.0
20260504021532 20 182 3.2 9.7 0.00 0.00 0.00 44 1007.9
20260504021432 20 182 3.2 8.0 0.00 0.00 0.00 44 1007.9
20260504021331 20 181 3.2 11.3 0.00 0.00 0.00 44 1007.9
20260504021233 20 184 3.2 11.3 0.00 0.00 0.00 43 1007.9
20260504021132 20 181 4.8 11.3 0.00 0.00 0.00 43 1007.9
20260504021031 20 179 4.8 11.3 0.00 0.00 0.00 43 1007.9
20260504020931 21 182 4.8 11.3 0.00 0.00 0.00 43 1007.9
20260504020831 21 182 4.8 11.3 0.00 0.00 0.00 43 1007.9
20260504020732 20 182 3.2 11.3 0.00 0.00 0.00 43 1007.9
20260504020633 21 182 3.2 11.3 0.00 0.00 0.00 44 1007.9
20260504020531 20 179 4.8 11.3 0.00 0.00 0.00 44 1007.9
20260504020431 20 177 3.2 11.3 0.00 0.00 0.00 44 1007.9
20260504020332 20 179 3.2 8.0 0.00 0.00 0.00 43 1007.8
20260504020232 20 176 3.2 8.0 0.00 0.00 0.00 43 1007.7
20260504020131 20 176 3.2 8.0 0.00 0.00 0.00 43 1008.0
20260504020031 21 175 3.2 6.4 0.00 0.00 0.00 43 1007.8
20260504015932 21 176 3.2 6.4 0.00 0.00 0.00 43 1007.8
20260504015831 21 175 3.2 8.0 0.00 0.00 0.00 43 1007.8
20260504015731 21 175 3.2 8.0 0.00 0.00 0.00 43 1007.8
20260504015631 21 174 3.2 8.0 0.00 0.00 0.00 43 1007.8
20260504015531 21 176 3.2 8.0 0.00 0.00 0.00 43 1007.8
20260504015433 21 176 3.2 8.0 0.00 0.00 0.00 43 1007.8
20260504015331 21 175 3.2 8.0 0.00 0.00 0.00 43 1007.8
20260504015231 21 177 4.8 8.0 0.00 0.00 0.00 43 1007.8
20260504015132 21 177 4.8 8.0 0.00 0.00 0.00 44 1007.8
20260504015031 21 179 4.8 8.0 0.00 0.00 0.00 43 1007.8
20260504014932 21 178 4.8 8.0 0.00 0.00 0.00 43 1007.8
20260504014831 21 179 3.2 8.0 0.00 0.00 0.00 43 1007.8
20260504014733 21 179 3.2 8.0 0.00 0.00 0.00 43 1007.8
20260504014431 21 177 3.2 9.7 0.00 0.00 0.00 44 1007.7
20260504014331 21 178 3.2 9.7 0.00 0.00 0.00 43 1007.7
20260504014231 21 177 3.2 9.7 0.00 0.00 0.00 43 1007.7
20260504014131 21 176 3.2 9.7 0.00 0.00 0.00 43 1007.6
20260504014031 21 175 3.2 9.7 0.00 0.00 0.00 43 1007.6
20260504013931 21 175 3.2 9.7 0.00 0.00 0.00 43 1007.5
20260504013831 21 175 3.2 9.7 0.00 0.00 0.00 43 1007.6
20260504013732 21 175 3.2 9.7 0.00 0.00 0.00 43 1007.5
20260504013531 21 176 3.2 8.0 0.00 0.00 0.00 43 1007.6
20260504013431 21 176 3.2 8.0 0.00 0.00 0.00 43 1007.6
20260504013331 21 177 3.2 8.0 0.00 0.00 0.00 43 1007.7
20260504013232 21 177 3.2 8.0 0.00 0.00 0.00 43 1007.7
20260504013031 21 178 3.2 8.0 0.00 0.00 0.00 43 1007.7
20260504012931 21 177 3.2 8.0 0.00 0.00 0.00 43 1007.7
20260504012831 21 177 3.2 8.0 0.00 0.00 0.00 43 1007.6
20260504012732 21 177 3.2 8.0 0.00 0.00 0.00 42 1007.6
20260504012632 21 177 3.2 8.0 0.00 0.00 0.00 42 1007.5
20260504012531 21 176 3.2 8.0 0.00 0.00 0.00 43 1007.5
20260504012432 21 176 3.2 8.0 0.00 0.00 0.00 42 1007.4
20260504012331 21 175 1.6 8.0 0.00 0.00 0.00 42 1007.4
20260504012232 21 174 1.6 6.4 0.00 0.00 0.00 42 1007.4
20260504012031 21 174 1.6 6.4 0.00 0.00 0.00 42 1007.5
20260504011931 21 174 1.6 4.8 0.00 0.00 0.00 41 1007.5
20260504011831 21 174 1.6 6.4 0.00 0.00 0.00 41 1007.5
20260504011732 21 173 1.6 6.4 0.00 0.00 0.00 41 1007.5
20260504011532 21 172 1.6 6.4 0.00 0.00 0.00 40 1007.5
20260504011432 21 174 1.6 6.4 0.00 0.00 0.00 40 1007.5
20260504011232 22 174 1.6 6.4 0.00 0.00 0.00 40 1007.6
20260504011131 22 175 1.6 6.4 0.00 0.00 0.00 40 1007.6
20260504010931 22 178 1.6 6.4 0.00 0.00 0.00 39 1007.6
20260504010831 22 179 3.2 6.4 0.00 0.00 0.00 39 1007.6
20260504010731 22 181 3.2 8.0 0.00 0.00 0.00 39 1007.6
20260504010631 22 181 3.2 8.0 0.00 0.00 0.00 39 1007.6
20260504010531 22 181 3.2 8.0 0.00 0.00 0.00 39 1007.5
20260504010431 22 181 3.2 8.0 0.00 0.00 0.00 39 1007.5
20260504010331 22 178 3.2 8.0 0.00 0.00 0.00 39 1007.5
20260504010232 22 179 3.2 11.3 0.00 0.00 0.00 39 1007.5
20260504010131 22 181 3.2 11.3 0.00 0.00 0.00 39 1007.6
20260504010031 22 182 3.2 11.3 0.00 0.00 0.00 39 1007.5
20260504005931 22 181 3.2 11.3 0.00 0.00 0.00 39 1007.4
20260504005831 22 182 3.2 11.3 0.00 0.00 0.00 39 1007.4
20260504005732 22 182 3.2 11.3 0.00 0.00 0.00 39 1007.4
20260504005631 22 183 3.2 11.3 0.00 0.00 0.00 38 1007.4
20260504005431 22 185 3.2 11.3 0.00 0.00 0.00 39 1007.4
20260504005231 22 187 3.2 11.3 0.00 0.00 0.00 38 1007.4
20260504005131 22 187 3.2 8.0 0.00 0.00 0.00 39 1007.4
20260504005031 22 187 3.2 8.0 0.00 0.00 0.00 38 1007.5
20260504004931 22 186 1.6 8.0 0.00 0.00 0.00 39 1007.5
20260504004731 22 182 1.6 6.4 0.00 0.00 0.00 39 1007.5
20260504004631 22 182 1.6 6.4 0.00 0.00 0.00 39 1007.5
20260504004531 22 183 3.2 6.4 0.00 0.00 0.00 39 1007.5
20260504004430 22 179 3.2 8.0 0.00 0.00 0.00 39 1007.4
20260504004331 22 181 3.2 8.0 0.00 0.00 0.00 38 1007.4
20260504004231 22 181 3.2 8.0 0.00 0.00 0.00 38 1007.4
20260504004131 22 182 3.2 8.0 0.00 0.00 0.00 38 1007.5
20260504004031 22 182 3.2 8.0 0.00 0.00 0.00 38 1007.5
20260504003931 22 181 1.6 8.0 0.00 0.00 0.00 39 1007.5
20260504003830 22 182 1.6 8.0 0.00 0.00 0.00 39 1007.5
20260504003531 22 178 3.2 8.0 0.00 0.00 0.00 38 1007.5
20260504003431 22 179 3.2 8.0 0.00 0.00 0.00 39 1007.5
20260504003331 22 183 3.2 8.0 0.00 0.00 0.00 38 1007.5
20260504003231 22 182 3.2 8.0 0.00 0.00 0.00 38 1007.5
20260504003131 22 178 3.2 8.0 0.00 0.00 0.00 38 1007.5
20260504003031 22 179 3.2 8.0 0.00 0.00 0.00 38 1007.5
20260504002931 22 178 3.2 8.0 0.00 0.00 0.00 38 1007.5
20260504002731 22 179 3.2 8.0 0.00 0.00 0.00 38 1007.5
20260504002632 22 178 3.2 8.0 0.00 0.00 0.00 38 1007.5
20260504002530 22 179 3.2 8.0 0.00 0.00 0.00 37 1007.5
20260504002431 22 179 3.2 9.7 0.00 0.00 0.00 37 1007.5
20260504002331 23 179 3.2 9.7 0.00 0.00 0.00 37 1007.4
20260504002232 23 182 3.2 9.7 0.00 0.00 0.00 37 1007.4
20260504001931 23 185 3.2 9.7 0.00 0.00 0.00 38 1007.5
20260504001831 23 185 3.2 9.7 0.00 0.00 0.00 37 1007.5
20260504001731 23 186 3.2 9.7 0.00 0.00 0.00 37 1007.5
20260504001630 23 189 3.2 9.7 0.00 0.00 0.00 37 1007.5
20260504001530 23 191 1.6 9.7 0.00 0.00 0.00 37 1007.5
20260504001432 23 193 1.6 9.7 0.00 0.00 0.00 37 1007.6
20260504001332 23 193 1.6 9.7 0.00 0.00 0.00 37 1007.6
20260504001231 23 188 1.6 6.4 0.00 0.00 0.00 37 1007.6
20260504001131 23 185 1.6 6.4 0.00 0.00 0.00 37 1007.6
20260504001032 23 184 3.2 6.4 0.00 0.00 0.00 37 1007.6
20260504000832 23 185 3.2 6.4 0.00 0.00 0.00 37 1007.6
20260504000730 23 183 3.2 6.4 0.00 0.00 0.00 37 1007.6
20260504000631 23 181 3.2 8.0 0.00 0.00 0.00 37 1007.5
20260504000531 23 179 3.2 8.0 0.00 0.00 0.00 37 1007.5
20260504000431 23 177 3.2 8.0 0.00 0.00 0.00 37 1007.5
20260504000330 23 177 3.2 8.0 0.00 0.00 0.00 37 1007.5
20260504000230 23 178 3.2 8.0 0.00 0.00 0.00 36 1007.5
20260504000131 23 181 3.2 8.0 0.00 0.00 0.00 36 1007.5
20260504000031 23 183 3.2 8.0 0.00 0.00 0.00 37 1007.5
20260503235931 23 184 3.2 8.0 0.00 0.00 0.00 37 1007.4
20260503235830 23 184 3.2 8.0 0.00 0.00 0.00 37 1007.5
20260503235730 23 186 3.2 8.0 0.00 0.00 0.00 36 1007.5
20260503235632 23 186 3.2 6.4 0.00 0.00 0.00 36 1007.6
20260503235431 23 189 3.2 8.0 0.00 0.00 0.00 36 1007.6
20260503235330 23 192 3.2 8.0 0.00 0.00 0.00 36 1007.6
20260503235131 23 192 3.2 8.0 0.00 0.00 0.00 36 1007.7
20260503235031 23 189 3.2 8.0 0.00 0.00 0.00 36 1007.7
20260503234731 23 187 3.2 8.0 0.00 0.00 0.00 36 1007.8
20260503234631 23 195 3.2 8.0 0.00 0.00 0.00 35 1007.9
20260503234532 23 195 1.6 8.0 0.00 0.00 0.00 35 1007.9
20260503234431 23 197 1.6 4.8 0.00 0.00 0.00 36 1007.9
20260503234331 23 195 3.2 4.8 0.00 0.00 0.00 36 1007.9
20260503234231 23 193 3.2 4.8 0.00 0.00 0.00 36 1007.9
20260503233830 23 198 1.6 4.8 0.00 0.00 0.00 36 1007.9
20260503233731 23 198 1.6 4.8 0.00 0.00 0.00 36 1007.8
20260503233631 23 192 1.6 4.8 0.00 0.00 0.00 37 1007.9
20260503233531 23 190 1.6 4.8 0.00 0.00 0.00 36 1007.8
20260503233431 23 185 3.2 9.7 0.00 0.00 0.00 36 1007.8
20260503233330 23 183 3.2 9.7 0.00 0.00 0.00 36 1007.8
20260503233230 23 182 3.2 9.7 0.00 0.00 0.00 36 1007.9
20260503233031 23 178 3.2 9.7 0.00 0.00 0.00 36 1007.9
20260503232930 23 177 3.2 9.7 0.00 0.00 0.00 37 1007.9
20260503232830 23 178 3.2 9.7 0.00 0.00 0.00 35 1007.9
20260503232630 23 175 3.2 9.7 0.00 0.00 0.00 35 1007.9
20260503232431 23 176 3.2 9.7 0.00 0.00 0.00 35 1007.9
20260503232330 23 176 3.2 9.7 0.00 0.00 0.00 35 1007.9
20260503232231 23 177 3.2 9.7 0.00 0.00 0.00 35 1007.9
20260503232131 23 179 3.2 9.7 0.00 0.00 0.00 35 1007.9
20260503231930 23 182 3.2 9.7 0.00 0.00 0.00 34 1007.9
20260503231831 23 183 3.2 9.7 0.00 0.00 0.00 36 1007.9
20260503231731 23 188 3.2 6.4 0.00 0.00 0.00 35 1007.9
20260503231631 23 188 3.2 8.0 0.00 0.00 0.00 35 1007.9
20260503231530 23 188 3.2 8.0 0.00 0.00 0.00 36 1007.9
20260503231431 23 188 3.2 8.0 0.00 0.00 0.00 34 1007.9
20260503231331 23 190 3.2 8.0 0.00 0.00 0.00 34 1007.9
20260503231230 23 186 3.2 9.7 0.00 0.00 0.00 34 1007.9
20260503231030 23 188 4.8 9.7 0.00 0.00 0.00 36 1007.9
20260503230930 23 185 4.8 9.7 0.00 0.00 0.00 36 1007.9
20260503230831 23 184 4.8 9.7 0.00 0.00 0.00 35 1007.9
20260503230732 23 186 4.8 9.7 0.00 0.00 0.00 34 1007.9
20260503230630 23 192 4.8 9.7 0.00 0.00 0.00 35 1007.9
20260503230530 23 193 4.8 9.7 0.00 0.00 0.00 34 1007.9
20260503230231 23 197 3.2 8.0 0.00 0.00 0.00 34 1007.9
20260503230130 23 197 3.2 8.0 0.00 0.00 0.00 34 1007.9
20260503225930 23 197 3.2 8.0 0.00 0.00 0.00 35 1008.0
20260503225830 23 202 3.2 8.0 0.00 0.00 0.00 34 1008.0
20260503225731 23 199 3.2 9.7 0.00 0.00 0.00 34 1008.0
20260503225631 23 193 3.2 9.7 0.00 0.00 0.00 35 1008.0
20260503225530 23 192 3.2 9.7 0.00 0.00 0.00 34 1008.0
20260503225430 23 193 3.2 9.7 0.00 0.00 0.00 34 1008.0
20260503225230 23 196 3.2 9.7 0.00 0.00 0.00 34 1008.1
20260503225131 23 201 3.2 9.7 0.00 0.00 0.00 34 1008.1
20260503224931 24 212 3.2 9.7 0.00 0.00 0.00 33 1008.2
20260503224830 24 209 3.2 9.7 0.00 0.00 0.00 34 1008.1
20260503224730 24 205 3.2 9.7 0.00 0.00 0.00 34 1008.2
20260503224630 24 209 3.2 9.7 0.00 0.00 0.00 34 1008.2
20260503224531 24 213 3.2 9.7 0.00 0.00 0.00 34 1008.1
20260503224430 24 218 3.2 9.7 0.00 0.00 0.00 35 1008.2
20260503224330 24 223 3.2 9.7 0.00 0.00 0.00 34 1008.1
20260503224230 24 223 3.2 9.7 0.00 0.00 0.00 34 1008.1
20260503224130 24 211 4.8 9.7 0.00 0.00 0.00 34 1008.2
20260503224030 24 204 4.8 9.7 0.00 0.00 0.00 35 1008.2
20260503223930 24 205 3.2 9.7 0.00 0.00 0.00 34 1008.1
20260503223830 24 205 3.2 9.7 0.00 0.00 0.00 34 1008.3
20260503223731 24 212 3.2 9.7 0.00 0.00 0.00 34 1008.3
20260503223630 24 213 3.2 9.7 0.00 0.00 0.00 35 1008.3
20260503223530 24 207 4.8 9.7 0.00 0.00 0.00 34 1008.2
20260503223430 24 198 4.8 11.3 0.00 0.00 0.00 34 1008.3
20260503223330 24 184 4.8 16.1 0.00 0.00 0.00 34 1008.3
20260503223231 24 181 4.8 17.7 0.00 0.00 0.00 33 1008.3
20260503222930 24 183 4.8 17.7 0.00 0.00 0.00 35 1008.3
20260503222830 23 185 4.8 17.7 0.00 0.00 0.00 34 1008.2
20260503222730 24 185 6.4 17.7 0.00 0.00 0.00 33 1008.3
20260503222631 24 185 4.8 17.7 0.00 0.00 0.00 33 1008.2
20260503222530 24 188 4.8 17.7 0.00 0.00 0.00 33 1008.2
20260503222430 24 193 4.8 17.7 0.00 0.00 0.00 33 1008.2
20260503222130 24 211 4.8 9.7 0.00 0.00 0.00 35 1008.2
20260503222030 24 205 4.8 9.7 0.00 0.00 0.00 34 1008.3
20260503221830 24 207 3.2 9.7 0.00 0.00 0.00 34 1008.4
20260503221730 24 206 3.2 9.7 0.00 0.00 0.00 33 1008.4
20260503221630 24 205 3.2 9.7 0.00 0.00 0.00 33 1008.4
20260503221530 24 208 3.2 8.0 0.00 0.00 0.00 34 1008.4
20260503221430 24 204 3.2 8.0 0.00 0.00 0.00 34 1008.5
20260503221330 24 213 3.2 8.0 0.00 0.00 0.00 34 1008.4
20260503221230 24 214 3.2 8.0 0.00 0.00 0.00 35 1008.4
20260503221130 24 218 3.2 9.7 0.00 0.00 0.00 35 1008.4
20260503221030 24 228 3.2 9.7 0.00 0.00 0.00 35 1008.4
20260503220932 24 238 3.2 9.7 0.00 0.00 0.00 35 1008.4
20260503220830 24 230 3.2 9.7 0.00 0.00 0.00 34 1008.5
20260503220730 24 231 3.2 9.7 0.00 0.00 0.00 34 1008.4
20260503220530 24 225 3.2 9.7 0.00 0.00 0.00 33 1008.4
20260503220430 24 229 3.2 9.7 0.00 0.00 0.00 34 1008.5
20260503220329 24 227 3.2 9.7 0.00 0.00 0.00 34 1008.5
20260503220230 24 231 3.2 9.7 0.00 0.00 0.00 34 1008.6
20260503220130 24 223 3.2 14.5 0.00 0.00 0.00 37 1008.5
20260503220030 24 216 4.8 14.5 0.00 0.00 0.00 34 1008.5
20260503215930 24 213 4.8 16.1 0.00 0.00 0.00 35 1008.5
20260503215730 24 202 4.8 20.9 0.00 0.00 0.00 34 1008.5
20260503215630 24 197 4.8 20.9 0.00 0.00 0.00 34 1008.6
20260503215531 23 197 4.8 20.9 0.00 0.00 0.00 33 1008.5
20260503215430 23 197 4.8 20.9 0.00 0.00 0.00 33 1008.6
20260503215329 23 196 4.8 20.9 0.00 0.00 0.00 34 1008.6
20260503215229 23 196 4.8 20.9 0.00 0.00 0.00 33 1008.6
20260503215130 24 204 4.8 20.9 0.00 0.00 0.00 34 1008.5
20260503215030 24 204 4.8 20.9 0.00 0.00 0.00 34 1008.5
20260503214930 24 207 4.8 20.9 0.00 0.00 0.00 33 1008.6
20260503214830 24 213 3.2 20.9 0.00 0.00 0.00 34 1008.5
20260503214729 24 215 3.2 16.1 0.00 0.00 0.00 35 1008.5
20260503214629 24 220 3.2 16.1 0.00 0.00 0.00 35 1008.6
20260503214530 23 219 3.2 16.1 0.00 0.00 0.00 35 1008.6
20260503214431 23 212 3.2 16.1 0.00 0.00 0.00 34 1008.5
20260503214329 23 210 3.2 16.1 0.00 0.00 0.00 34 1008.5
20260503214129 23 199 3.2 16.1 0.00 0.00 0.00 35 1008.5
20260503213930 23 196 4.8 16.1 0.00 0.00 0.00 34 1008.5
20260503213830 23 190 4.8 17.7 0.00 0.00 0.00 37 1008.6
20260503213730 23 189 4.8 17.7 0.00 0.00 0.00 35 1008.6
20260503213530 23 196 6.4 17.7 0.00 0.00 0.00 34 1008.6
20260503213430 23 201 6.4 17.7 0.00 0.00 0.00 34 1008.6
20260503213329 23 201 6.4 17.7 0.00 0.00 0.00 34 1008.6
20260503213230 23 198 6.4 17.7 0.00 0.00 0.00 37 1008.6
20260503213130 23 200 6.4 17.7 0.00 0.00 0.00 35 1008.6
20260503213030 23 195 6.4 17.7 0.00 0.00 0.00 34 1008.6
20260503212929 23 196 6.4 17.7 0.00 0.00 0.00 34 1008.7
20260503212829 23 198 6.4 16.1 0.00 0.00 0.00 34 1008.7
20260503212729 23 199 6.4 16.1 0.00 0.00 0.00 34 1008.7
20260503212630 23 199 6.4 16.1 0.00 0.00 0.00 36 1008.8
20260503212530 23 191 6.4 16.1 0.00 0.00 0.00 36 1008.8
20260503212229 23 192 4.8 16.1 0.00 0.00 0.00 34 1008.9
20260503212129 23 194 4.8 14.5 0.00 0.00 0.00 35 1008.8
20260503212030 23 200 4.8 14.5 0.00 0.00 0.00 34 1008.8
20260503211930 23 202 4.8 14.5 0.00 0.00 0.00 35 1008.9
20260503211830 23 200 4.8 16.1 0.00 0.00 0.00 35 1008.8
20260503211730 23 201 4.8 16.1 0.00 0.00 0.00 36 1008.9
20260503211629 23 196 4.8 16.1 0.00 0.00 0.00 36 1008.9
20260503211331 23 199 4.8 16.1 0.00 0.00 0.00 35 1008.9
20260503211230 23 200 4.8 16.1 0.00 0.00 0.00 35 1008.8
20260503211030 23 201 4.8 16.1 0.00 0.00 0.00 35 1009.0
20260503210729 23 206 4.8 14.5 0.00 0.00 0.00 34 1009.0
20260503210630 23 206 4.8 14.5 0.00 0.00 0.00 35 1009.0
20260503210429 23 194 6.4 17.7 0.00 0.00 0.00 35 1009.0
20260503210329 23 188 6.4 17.7 0.00 0.00 0.00 36 1009.0
20260503210229 23 187 6.4 17.7 0.00 0.00 0.00 35 1009.0
20260503210130 23 189 6.4 17.7 0.00 0.00 0.00 35 1009.0
20260503210030 23 186 6.4 17.7 0.00 0.00 0.00 35 1009.0
20260503205829 23 179 6.4 17.7 0.00 0.00 0.00 35 1009.1
20260503205730 23 176 4.8 17.7 0.00 0.00 0.00 35 1009.1
20260503205530 22 178 4.8 17.7 0.00 0.00 0.00 36 1009.2
20260503205329 22 177 4.8 16.1 0.00 0.00 0.00 36 1009.3
20260503205229 22 173 4.8 16.1 0.00 0.00 0.00 34 1009.4
20260503204930 22 177 4.8 14.5 0.00 0.00 0.00 36 1009.4
20260503204829 22 177 4.8 14.5 0.00 0.00 0.00 35 1009.4
20260503204729 22 178 4.8 14.5 0.00 0.00 0.00 35 1009.3
20260503204631 22 178 4.8 14.5 0.00 0.00 0.00 35 1009.5
20260503204530 22 175 4.8 14.5 0.00 0.00 0.00 36 1009.5
20260503204430 22 181 4.8 14.5 0.00 0.00 0.00 36 1009.4
20260503204330 22 183 4.8 14.5 0.00 0.00 0.00 34 1009.5
20260503204229 23 188 4.8 14.5 0.00 0.00 0.00 35 1009.6
20260503204130 23 187 4.8 14.5 0.00 0.00 0.00 35 1009.6
20260503204029 22 178 4.8 14.5 0.00 0.00 0.00 36 1009.5
20260503203929 22 182 4.8 14.5 0.00 0.00 0.00 35 1009.5
20260503203830 22 185 4.8 14.5 0.00 0.00 0.00 34 1009.6
20260503203529 22 198 4.8 11.3 0.00 0.00 0.00 34 1009.6
20260503203429 22 197 4.8 11.3 0.00 0.00 0.00 35 1009.6
20260503203329 22 200 4.8 11.3 0.00 0.00 0.00 35 1009.7
20260503203230 22 201 4.8 11.3 0.00 0.00 0.00 34 1009.8
20260503203131 23 208 4.8 11.3 0.00 0.00 0.00 34 1010.0
20260503203029 23 222 4.8 9.7 0.00 0.00 0.00 34 1009.9
20260503202830 22 213 4.8 14.5 0.00 0.00 0.00 37 1010.0
20260503202730 22 203 4.8 14.5 0.00 0.00 0.00 36 1009.9
20260503202530 22 191 6.4 14.5 0.00 0.00 0.00 36 1010.0
20260503202429 22 187 6.4 14.5 0.00 0.00 0.00 35 1010.0
20260503202330 22 183 6.4 14.5 0.00 0.00 0.00 35 1010.0
20260503202230 22 176 6.4 14.5 0.00 0.00 0.00 35 1010.0
20260503202130 22 171 6.4 14.5 0.00 0.00 0.00 35 1010.1
20260503202029 22 172 6.4 14.5 0.00 0.00 0.00 38 1010.0
20260503201929 22 172 4.8 11.3 0.00 0.00 0.00 35 1010.0
20260503201829 22 171 4.8 11.3 0.00 0.00 0.00 35 1010.1
20260503201530 22 169 4.8 11.3 0.00 0.00 0.00 35 1010.1
20260503201429 22 170 4.8 11.3 0.00 0.00 0.00 35 1010.2
20260503201329 22 171 4.8 11.3 0.00 0.00 0.00 36 1010.3
20260503201229 22 176 6.4 11.3 0.00 0.00 0.00 36 1010.2
20260503201130 22 178 6.4 20.9 0.00 0.00 0.00 36 1010.3
20260503201029 22 175 4.8 20.9 0.00 0.00 0.00 36 1010.3
20260503200929 22 175 4.8 20.9 0.00 0.00 0.00 36 1010.4
20260503200829 22 173 4.8 20.9 0.00 0.00 0.00 36 1010.3
20260503200731 22 176 6.4 20.9 0.00 0.00 0.00 35 1010.4
20260503200629 22 177 6.4 20.9 0.00 0.00 0.00 35 1010.4
20260503200529 22 179 4.8 20.9 0.00 0.00 0.00 36 1010.4
20260503200429 22 184 4.8 20.9 0.00 0.00 0.00 36 1010.5
20260503200330 22 189 4.8 20.9 0.00 0.00 0.00 36 1010.3
20260503200229 22 191 4.8 20.9 0.00 0.00 0.00 36 1010.5
20260503200129 22 195 4.8 16.1 0.00 0.00 0.00 36 1010.5
20260503200029 22 200 4.8 16.1 0.00 0.00 0.00 35 1010.5
20260503195929 22 196 6.4 16.1 0.00 0.00 0.00 36 1010.6
20260503195831 22 194 6.4 16.1 0.00 0.00 0.00 36 1010.5
20260503195729 22 194 4.8 16.1 0.00 0.00 0.00 36 1010.6
20260503195629 22 193 4.8 16.1 0.00 0.00 0.00 38 1010.6
20260503195529 22 191 4.8 16.1 0.00 0.00 0.00 36 1010.5
20260503195429 22 188 4.8 16.1 0.00 0.00 0.00 36 1010.6
20260503195331 22 182 6.4 16.1 0.00 0.00 0.00 37 1010.6
20260503195229 22 176 4.8 16.1 0.00 0.00 0.00 35 1010.7
20260503195129 22 174 4.8 16.1 0.00 0.00 0.00 36 1010.6
20260503194930 22 172 4.8 11.3 0.00 0.00 0.00 36 1010.7
20260503194829 22 173 4.8 11.3 0.00 0.00 0.00 36 1010.8
20260503194730 22 178 4.8 11.3 0.00 0.00 0.00 35 1010.7
20260503194630 22 187 4.8 11.3 0.00 0.00 0.00 35 1010.9
20260503194530 22 197 4.8 14.5 0.00 0.00 0.00 35 1010.9
20260503194330 22 211 4.8 14.5 0.00 0.00 0.00 36 1010.9
20260503194230 21 222 4.8 14.5 0.00 0.00 0.00 36 1011.0
20260503194129 21 224 4.8 14.5 0.00 0.00 0.00 35 1011.1
20260503194030 21 226 6.4 19.3 0.00 0.00 0.00 35 1011.1
20260503193830 22 223 6.4 19.3 0.00 0.00 0.00 36 1011.1
20260503193729 21 215 6.4 19.3 0.00 0.00 0.00 35 1011.0
20260503193630 21 204 6.4 19.3 0.00 0.00 0.00 36 1011.1
20260503193528 21 197 6.4 19.3 0.00 0.00 0.00 36 1011.1
20260503193329 21 187 6.4 19.3 0.00 0.00 0.00 34 1011.2
20260503193230 21 187 6.4 19.3 0.00 0.00 0.00 37 1011.2
20260503193129 21 184 6.4 19.3 0.00 0.00 0.00 36 1011.2
20260503193029 21 181 6.4 16.1 0.00 0.00 0.00 35 1011.2
20260503192830 21 190 6.4 16.1 0.00 0.00 0.00 36 1011.3
20260503192729 21 195 6.4 16.1 0.00 0.00 0.00 37 1011.3
20260503192629 21 199 6.4 16.1 0.00 0.00 0.00 37 1011.5
20260503192530 21 206 6.4 16.1 0.00 0.00 0.00 37 1011.6
20260503192430 21 208 6.4 16.1 0.00 0.00 0.00 37 1011.5
20260503192229 21 200 6.4 16.1 0.00 0.00 0.00 36 1011.6
20260503192129 21 200 6.4 16.1 0.00 0.00 0.00 34 1011.6
20260503192028 21 204 6.4 16.1 0.00 0.00 0.00 34 1011.6
20260503191929 21 199 6.4 17.7 0.00 0.00 0.00 38 1011.6
20260503191829 21 192 6.4 17.7 0.00 0.00 0.00 36 1011.6
20260503191729 21 190 8.0 17.7 0.00 0.00 0.00 37 1011.6
20260503191629 21 188 8.0 19.3 0.00 0.00 0.00 36 1011.7
20260503191429 21 182 8.0 22.5 0.00 0.00 0.00 37 1011.7
20260503191229 21 186 8.0 22.5 0.00 0.00 0.00 38 1011.7
20260503190930 21 176 9.7 22.5 0.00 0.00 0.00 37 1011.7
20260503190829 21 174 9.7 22.5 0.00 0.00 0.00 36 1011.7
20260503190729 21 175 8.0 22.5 0.00 0.00 0.00 36 1011.8
20260503190529 21 182 8.0 22.5 0.00 0.00 0.00 36 1011.8
20260503190429 21 183 8.0 19.3 0.00 0.00 0.00 36 1011.9
20260503190330 21 183 8.0 19.3 0.00 0.00 0.00 35 1011.9
20260503190129 21 184 6.4 19.3 0.00 0.00 0.00 36 1012.1
20260503185930 21 190 4.8 19.3 0.00 0.00 0.00 36 1012.2
20260503185829 21 196 4.8 19.3 0.00 0.00 0.00 37 1012.1
20260503185729 21 192 4.8 14.5 0.00 0.00 0.00 37 1012.2
20260503185528 21 190 4.8 19.3 0.00 0.00 0.00 38 1012.2
20260503185429 21 195 4.8 19.3 0.00 0.00 0.00 37 1012.2
20260503185330 20 202 6.4 19.3 0.00 0.00 0.00 37 1012.3
20260503185229 20 209 6.4 19.3 0.00 0.00 0.00 37 1012.3
20260503185130 20 207 6.4 19.3 0.00 0.00 0.00 36 1012.4
20260503185029 20 212 6.4 19.3 0.00 0.00 0.00 37 1012.5
20260503184829 20 223 6.4 19.3 0.00 0.00 0.00 37 1012.6
20260503184730 20 224 4.8 19.3 0.00 0.00 0.00 37 1012.7
20260503184629 20 232 4.8 14.5 0.00 0.00 0.00 39 1012.7
20260503184529 20 227 4.8 14.5 0.00 0.00 0.00 37 1012.7
20260503184428 20 223 4.8 14.5 0.00 0.00 0.00 37 1012.6
20260503184230 20 220 4.8 14.5 0.00 0.00 0.00 38 1012.7
20260503184129 20 222 4.8 14.5 0.00 0.00 0.00 38 1012.6
20260503184029 20 223 4.8 14.5 0.00 0.00 0.00 39 1012.7
20260503183930 20 214 4.8 14.5 0.00 0.00 0.00 38 1012.7
20260503183829 20 208 4.8 14.5 0.00 0.00 0.00 38 1012.7
20260503183729 20 206 6.4 14.5 0.00 0.00 0.00 37 1012.7
20260503183628 20 205 6.4 14.5 0.00 0.00 0.00 37 1012.7
20260503183528 20 205 6.4 14.5 0.00 0.00 0.00 37 1012.7
20260503183428 20 210 6.4 14.5 0.00 0.00 0.00 38 1012.7
20260503183329 20 209 4.8 14.5 0.00 0.00 0.00 37 1012.7
20260503183229 20 206 4.8 14.5 0.00 0.00 0.00 40 1012.8
20260503183029 20 201 4.8 14.5 0.00 0.00 0.00 37 1012.9
20260503182929 20 208 4.8 14.5 0.00 0.00 0.00 39 1013.0
20260503182729 20 215 4.8 14.5 0.00 0.00 0.00 36 1013.1
20260503182628 20 221 4.8 11.3 0.00 0.00 0.00 37 1013.1
20260503182529 20 225 4.8 11.3 0.00 0.00 0.00 38 1013.2
20260503182429 20 222 4.8 11.3 0.00 0.00 0.00 38 1013.2
20260503182229 20 222 4.8 11.3 0.00 0.00 0.00 37 1013.3
20260503182128 20 231 4.8 14.5 0.00 0.00 0.00 38 1013.3
20260503182028 20 235 4.8 14.5 0.00 0.00 0.00 38 1013.4
20260503181830 20 233 4.8 14.5 0.00 0.00 0.00 42 1013.4
20260503181729 20 229 4.8 14.5 0.00 0.00 0.00 42 1013.4
20260503181630 19 211 4.8 16.1 0.00 0.00 0.00 38 1013.5
20260503181529 20 209 4.8 16.1 0.00 0.00 0.00 38 1013.4
20260503181429 20 209 4.8 16.1 0.00 0.00 0.00 38 1013.5
20260503181329 20 212 4.8 16.1 0.00 0.00 0.00 39 1013.5
20260503181128 20 206 4.8 16.1 0.00 0.00 0.00 37 1013.6
20260503181029 20 200 4.8 16.1 0.00 0.00 0.00 39 1013.7
20260503180929 20 191 4.8 16.1 0.00 0.00 0.00 37 1013.7
20260503180829 20 189 4.8 16.1 0.00 0.00 0.00 37 1013.7
20260503180729 20 188 4.8 16.1 0.00 0.00 0.00 38 1013.7
20260503180629 20 193 4.8 16.1 0.00 0.00 0.00 40 1013.7
20260503180528 20 194 4.8 16.1 0.00 0.00 0.00 40 1013.7
20260503180429 20 198 6.4 16.1 0.00 0.00 0.00 43 1013.7
20260503180329 19 196 6.4 16.1 0.00 0.00 0.00 40 1013.8
20260503180229 19 189 6.4 17.7 0.00 0.00 0.00 40 1013.8
20260503180128 19 184 6.4 17.7 0.00 0.00 0.00 38 1013.8
20260503180029 19 182 6.4 17.7 0.00 0.00 0.00 39 1013.8
20260503175929 19 188 6.4 17.7 0.00 0.00 0.00 39 1013.8
20260503175728 19 189 4.8 17.7 0.00 0.00 0.00 40 1013.9
20260503175628 19 196 6.4 17.7 0.00 0.00 0.00 42 1013.9
20260503175529 19 194 6.4 17.7 0.00 0.00 0.00 39 1013.9
20260503175329 19 189 4.8 17.7 0.00 0.00 0.00 39 1014.1
20260503175228 19 188 4.8 16.1 0.00 0.00 0.00 39 1014.1
20260503175128 19 190 4.8 16.1 0.00 0.00 0.00 40 1014.2
20260503175028 19 195 6.4 16.1 0.00 0.00 0.00 40 1014.2
20260503174929 19 199 6.4 16.1 0.00 0.00 0.00 41 1014.2
20260503174830 19 201 6.4 16.1 0.00 0.00 0.00 41 1014.3
20260503174728 18 202 6.4 16.1 0.00 0.00 0.00 44 1014.1
20260503174628 18 197 6.4 16.1 0.00 0.00 0.00 39 1014.2
20260503174528 18 198 6.4 14.5 0.00 0.00 0.00 40 1014.2
20260503174330 18 210 4.8 14.5 0.00 0.00 0.00 39 1014.3
20260503174228 18 220 4.8 14.5 0.00 0.00 0.00 39 1014.4
20260503174028 19 228 4.8 14.5 0.00 0.00 0.00 39 1014.5
20260503173929 19 225 4.8 14.5 0.00 0.00 0.00 39 1014.5
20260503173828 19 218 4.8 14.5 0.00 0.00 0.00 39 1014.6
20260503173728 19 224 4.8 14.5 0.00 0.00 0.00 42 1014.7
20260503173528 19 240 4.8 14.5 0.00 0.00 0.00 42 1014.7
20260503173428 18 241 4.8 14.5 0.00 0.00 0.00 42 1014.6
20260503173228 18 238 4.8 14.5 0.00 0.00 0.00 41 1014.8
20260503173128 18 238 4.8 14.5 0.00 0.00 0.00 40 1014.8
20260503173028 18 234 4.8 14.5 0.00 0.00 0.00 40 1014.8
20260503172928 18 236 4.8 14.5 0.00 0.00 0.00 39 1014.8
20260503172829 18 233 4.8 14.5 0.00 0.00 0.00 40 1014.8
20260503172728 18 233 4.8 16.1 0.00 0.00 0.00 39 1014.8
20260503172528 18 222 4.8 16.1 0.00 0.00 0.00 43 1014.9
20260503172428 18 212 4.8 16.1 0.00 0.00 0.00 43 1014.8
20260503172228 18 193 6.4 25.7 0.00 0.00 0.00 40 1014.8
20260503172028 18 200 6.4 25.7 0.00 0.00 0.00 44 1014.9
20260503171928 18 195 6.4 25.7 0.00 0.00 0.00 42 1014.8
20260503171829 18 195 6.4 25.7 0.00 0.00 0.00 40 1014.9
20260503171728 18 190 6.4 25.7 0.00 0.00 0.00 40 1015.0
20260503171628 18 186 6.4 25.7 0.00 0.00 0.00 41 1015.0
20260503171529 18 189 6.4 25.7 0.00 0.00 0.00 41 1014.9
20260503171429 18 192 4.8 25.7 0.00 0.00 0.00 40 1015.0
20260503171328 18 197 4.8 25.7 0.00 0.00 0.00 40 1015.0
20260503171228 18 200 4.8 11.3 0.00 0.00 0.00 42 1015.1
20260503171128 18 198 4.8 11.3 0.00 0.00 0.00 42 1015.2
20260503171028 18 193 4.8 11.3 0.00 0.00 0.00 41 1015.3
20260503170928 18 197 4.8 11.3 0.00 0.00 0.00 39 1015.3
20260503170828 18 203 4.8 11.3 0.00 0.00 0.00 39 1015.4
20260503170728 18 203 4.8 11.3 0.00 0.00 0.00 40 1015.3
20260503170628 18 200 4.8 17.7 0.00 0.00 0.00 43 1015.4
20260503170528 18 189 4.8 20.9 0.00 0.00 0.00 41 1015.4
20260503170328 18 189 6.4 20.9 0.00 0.00 0.00 43 1015.4
20260503170229 18 189 6.4 20.9 0.00 0.00 0.00 43 1015.4
20260503170128 18 192 6.4 20.9 0.00 0.00 0.00 42 1015.4